Wind_Speed
9 8 19 21 20 12 13 12 18 18 5 7 9 10 17 19 9 16 16 17 12 12 2 15 24 30 36 33 29 25 20 16 14 10 8 6 8 9 11 12 13 12 11 11
7 27 17 12 14 16 11 9 18 15 12 5 12 15 16 17 14 16 21 14 11 3 4 6 19 27 32 33 29 23 18 16 13 8 5 6 7 7 10 10 10 12 10 10
25 18 15 19 14 17 17 19 19 20 6 7 11 12 16 17 8 10 8 5 6 11 11 12 14 21 28 32 28 23 19 15 11 7 3 3 5 6 8 7 6 7 6 7
17 23 17 20 20 19 19 19 19 17 8 9 4 5 5 8 10 7 9 7 9 8 7 12 15 13 24 29 24 21 18 14 11 7 3 2 4 6 5 4 3 3 2 3
16 19 25 17 29 20 18 12 12 8 7 5 16 4 5 4 10 10 10 9 9 8 10 14 13 17 26 26 23 20 17 15 12 7 4 3 3 4 2 1 0 2 2 3
20 9 18 27 10 18 8 3 3 6 2 8 21 5 8 6 8 6 6 6 4 7 10 9 13 22 22 22 21 19 19 14 12 9 6 4 0 1 3 2 1 2 4 5
8 21 4 10 20 10 10 6 2 3 4 6 8 6 14 10 10 12 11 5 8 8 11 13 15 10 18 21 21 21 18 15 11 7 7 4 2 3 2 2 1 0 5 8
12 10 27 11 19 12 22 15 6 6 4 4 6 7 10 9 12 10 9 7 9 9 9 12 13 12 18 23 23 21 17 14 11 7 9 4 3 3 1 2 1 3 6 11
13 14 2 22 8 18 11 15 12 3 1 1 4 7 8 3 1 2 6 8 9 9 11 13 11 13 20 24 26 22 17 13 10 8 8 6 4 4 2 3 3 6 8 10
2 2 9 14 18 17 9 9 9 4 4 3 5 4 6 3 2 3 6 8 7 7 9 10 9 13 21 27 26 19 16 13 11 11 8 7 6 4 3 3 5 7 7 8
3 2 4 10 14 23 6 15 3 8 5 6 1 6 8 9 9 11 9 8 11 11 12 12 9 15 24 27 24 19 15 14 11 11 8 6 7 4 4 3 6 5 6 7
6 5 9 11 4 17 23 19 20 8 8 2 5 12 5 8 10 9 9 8 7 8 12 10 11 14 18 24 22 18 16 16 14 10 9 7 9 5 5 5 7 5 7 8
8 5 1 5 5 4 14 22 16 7 3 6 6 6 3 5 8 11 10 8 9 9 9 8 8 10 13 21 22 18 17 17 15 11 9 9 8 7 5 5 8 7 8 9
5 5 12 17 4 4 5 17 17 14 10 10 10 5 3 3 7 7 7 8 11 12 13 11 9 9 14 20 24 20 19 18 16 13 10 12 8 7 6 6 10 9 9 12
3 4 7 17 21 11 4 11 20 20 20 15 16 10 7 8 10 14 9 8 10 11 12 13 12 10 11 17 23 23 20 19 19 16 14 10 8 8 8 9 11 10 9 10
6 5 10 9 15 23 22 8 16 20 14 11 8 9 8 7 8 7 11 13 14 15 15 14 12 11 11 18 23 24 22 21 21 19 17 12 11 10 10 11 11 12 11 9
3 4 10 7 13 9 16 28 15 9 13 15 9 9 7 4 11 12 10 14 17 16 17 16 16 15 17 21 27 26 26 24 24 22 19 16 13 13 13 13 14 12 10 12
6 4 3 5 2 9 13 9 18 14 8 12 4 9 14 11 17 16 16 19 15 15 17 16 15 15 21 25 28 30 27 26 28 25 22 18 12 13 19 16 14 11 10 12
12 6 3 3 5 4 6 5 4 9 9 8 11 8 10 6 6 2 11 15 21 20 18 15 22 25 25 29 31 31 28 28 29 28 26 22 14 18 18 18 15 13 12 12
11 15 6 2 3 7 4 17 15 11 9 12 13 8 8 10 8 7 11 11 11 10 13 15 22 24 25 27 31 30 27 27 26 29 29 26 19 21 18 19 18 15 13 15
6 3 8 3 4 3 17 20 18 9 5 18 16 15 10 10 11 17 14 16 17 16 16 23 25 25 30 32 32 25 26 27 35 35 30 29 24 25 21 19 22 18 16 16
3 5 2 3 4 3 22 7 8 6 10 14 18 14 10 14 9 7 16 18 16 13 13 23 21 23 27 33 33 25 27 36 35 35 33 30 29 26 25 24 24 22 20 19
3 3 4 3 2 1 7 3 4 5 8 12 17 19 12 13 8 10 12 17 17 18 16 26 23 22 27 33 35 28 30 34 36 34 34 33 33 30 28 28 26 24 23 22
3 4 2 7 4 11 10 4 7 12 11 15 15 17 10 7 6 10 12 13 14 13 14 22 21 18 21 31 34 38 33 37 36 33 34 34 34 33 31 30 29 28 26 26
3 3 4 5 9 13 1 17 16 18 16 16 18 15 13 9 6 3 13 15 15 16 16 23 22 21 25 31 32 31 36 37 33 34 34 32 34 36 33 33 33 33 30 30
2 1 1 1 13 7 10 13 19 14 16 16 18 19 18 14 10 5 6 15 15 15 19 18 22 24 25 29 31 34 38 39 34 29 30 31 29 32 29 30 30 31 32 31
Wind_Direction
177 197 210 202 209 216 228 234 247 258 213 233 240 252 274 282 287 280 277 265 235 228 153 169 167 172 173 174 173 175 171 179 183 198 226 272 276 292 303 294 271 254 250 243
182 227 210 208 210 218 232 246 256 281 265 246 276 269 270 283 277 272 268 257 242 105 107 134 150 159 166 167 171 170 173 176 183 203 235 269 281 300 311 296 267 261 268 250
203 221 197 206 212 217 224 230 247 251 299 226 278 282 278 279 287 278 246 214 174 187 178 162 162 158 162 165 168 169 173 173 182 202 190 259 288 302 313 300 277 276 269 254
227 218 182 205 223 212 231 221 241 256 276 271 116 289 294 279 289 285 265 217 233 202 145 160 158 156 162 167 168 169 170 172 177 180 203 257 301 318 310 287 298 278 224 205
205 198 222 223 219 205 237 225 244 255 258 298 271 265 255 267 287 266 269 236 231 188 158 161 155 154 166 165 168 169 169 173 185 184 213 245 308 333 266 224 314 224 179 185
222 200 206 222 203 213 233 230 287 265 234 254 264 163 276 230 226 264 261 294 118 131 118 116 128 155 162 165 167 167 170 181 190 205 220 236 308 124 210 195 179 289 209 185
188 228 221 175 218 209 194 112 271 307 198 222 234 180 239 257 245 247 250 166 138 131 126 141 156 154 155 165 166 169 174 186 193 201 216 222 172 163 215 200 244 233 178 174
192 213 212 189 202 191 210 187 175 201 183 213 181 236 252 242 259 232 238 145 128 138 140 158 160 157 159 167 169 173 182 191 194 209 196 203 192 182 154 42 177 160 153 164
201 231 214 198 189 183 199 206 181 358 278 72 208 285 323 268 305 206 150 144 155 151 156 160 159 160 162 170 172 177 185 190 192 197 197 207 204 189 158 72 98 138 141 161
279 167 216 206 200 211 159 153 188 192 228 219 263 254 230 256 199 191 159 163 137 134 145 161 157 161 172 176 177 180 187 195 192 182 197 214 190 191 174 89 124 135 146 162
267 148 301 156 202 196 164 231 156 160 186 177 180 257 211 213 186 190 213 176 164 163 167 166 157 169 176 178 179 183 192 197 193 188 198 208 177 175 188 158 152 146 152 161
279 208 244 217 282 187 200 205 212 200 211 208 164 258 227 209 191 170 197 179 155 167 166 159 159 157 168 178 180 186 192 196 192 196 194 188 171 158 176 166 164 162 143 145
326 276 218 274 271 187 204 204 201 206 96 210 156 258 248 215 195 189 177 164 155 161 146 146 150 162 173 181 180 181 188 190 184 175 173 161 158 158 163 158 163 165 149 140
323 268 234 220 196 173 167 198 197 193 210 219 231 260 213 148 164 169 166 173 163 167 163 160 163 171 177 184 180 181 184 189 180 175 166 156 152 158 149 139 161 151 150 142
23 268 274 258 238 272 213 176 199 205 209 198 230 204 215 192 189 200 162 141 147 159 166 174 173 175 178 184 184 185 184 186 182 176 169 166 151 152 138 130 152 147 146 146
356 287 329 259 235 231 251 258 204 206 208 218 177 216 200 190 98 143 177 164 176 178 180 180 173 176 181 186 185 187 186 187 184 177 173 171 168 155 142 138 150 156 151 158
260 334 351 274 223 222 248 240 239 221 201 190 180 214 150 136 174 181 180 186 184 182 182 181 180 180 185 188 187 187 187 187 185 179 176 174 182 169 160 147 150 155 157 157
240 258 220 278 214 198 246 202 219 222 218 215 181 174 175 175 196 190 192 187 185 184 183 190 182 180 184 188 189 190 186 186 187 182 180 182 185 182 169 164 161 156 149 147
222 202 247 245 211 305 200 22 165 168 252 211 228 195 195 162 113 247 205 190 184 185 188 187 182 180 178 184 189 189 184 186 186 185 185 184 181 173 175 174 171 162 155 149
327 178 187 321 231 195 31 325 322 305 197 356 351 296 155 134 170 224 183 188 193 196 175 177 180 172 174 184 185 179 178 179 185 190 189 188 180 178 174 186 185 170 162 152
343 142 228 299 283 332 345 323 303 138 275 323 327 317 278 181 192 199 182 186 183 178 174 169 166 172 182 181 180 177 176 182 193 194 191 189 186 181 176 178 176 174 167 161
305 314 164 179 261 273 344 13 57 305 312 317 319 313 289 252 191 166 176 178 170 157 150 165 171 179 175 179 178 177 186 193 191 193 193 193 188 186 181 177 178 177 172 170
252 315 325 323 48 28 330 98 270 281 312 325 313 310 301 264 234 174 182 177 180 171 170 172 175 169 171 180 181 182 193 190 189 189 193 195 193 192 192 186 183 183 183 178
252 315 315 319 89 310 291 272 339 349 325 321 319 312 319 285 207 210 168 179 170 169 166 167 162 169 175 181 186 194 185 189 186 186 193 198 196 198 199 198 195 191 189 191
245 282 341 303 305 331 74 335 337 330 327 324 334 332 325 343 14 242 182 178 177 174 166 166 172 174 183 181 186 188 189 184 183 187 193 196 197 199 202 203 203 202 205 202
222 266 351 275 291 289 277 298 312 311 319 327 338 333 352 354 1 314 250 178 175 175 168 171 179 175 180 183 183 186 190 188 183 184 188 193 190 195 198 200 205 208 214 212
Height
734 750 737 740 739 741 741 751 749 730 728 733 735 733 716 700 705 701 693 688 687 684 684 687 693 701 707 715 720 725 727 733 735 737 738 736 736 735 734 733 733 733 733 735
734 719 722 727 733 741 741 750 747 732 723 731 730 726 712 701 698 692 683 684 683 688 689 691 694 699 705 711 718 723 728 732 734 735 735 735 734 733 732 731 730 731 731 732
714 700 713 722 728 735 739 743 740 740 729 726 727 728 715 693 692 683 679 678 679 681 685 689 693 698 706 710 716 721 727 730 732 734 733 733 733 732 730 730 730 730 729 730
711 702 704 715 721 724 738 722 729 732 743 753 726 760 719 706 698 688 676 674 672 676 682 687 692 701 705 709 715 721 726 728 731 732 732 732 732 731 730 730 729 729 729 730
692 699 706 711 704 714 720 720 727 732 740 742 732 755 722 707 704 693 679 672 673 675 680 685 691 700 705 709 715 721 724 727 729 731 731 731 730 730 730 730 728 729 730 730
690 680 689 693 699 706 710 724 729 734 743 759 728 745 716 711 696 680 671 666 673 680 682 690 696 702 706 711 716 720 723 726 728 730 730 730 729 730 730 729 728 728 729 730
695 689 683 685 707 709 717 739 767 777 766 757 722 739 710 684 679 675 671 669 678 682 686 691 696 701 706 711 716 720 723 725 727 729 729 729 729 730 730 729 728 728 729 730
697 706 681 674 684 703 708 720 752 759 757 742 716 728 697 673 664 663 662 667 676 684 687 691 696 700 705 710 715 719 722 724 726 727 727 729 729 730 730 729 728 728 729 731
692 686 661 664 671 681 698 710 707 728 723 732 722 701 678 668 664 665 668 671 677 683 686 690 695 700 704 709 714 718 721 724 725 725 727 728 729 730 730 729 729 729 730 731
672 690 666 666 671 674 686 690 724 736 743 739 724 711 703 670 670 671 672 674 680 685 689 692 696 700 704 708 713 718 721 722 723 725 726 728 729 730 730 730 731 731 732 732
670 677 672 663 665 674 693 692 698 706 719 739 743 718 680 668 668 670 672 672 677 682 687 690 695 699 703 708 713 717 720 722 723 724 726 728 729 730 730 731 732 733 733 733
688 676 678 670 652 650 664 677 683 699 713 712 713 691 655 658 660 662 667 669 675 681 683 688 693 698 704 708 712 716 719 721 723 724 726 727 729 730 730 731 733 734 734 734
697 685 689 678 667 658 662 659 668 683 697 704 716 689 657 660 659 658 665 670 675 682 684 689 695 698 703 707 711 715 718 720 722 724 726 728 729 730 731 732 734 735 736 736
699 698 670 664 656 650 661 658 661 672 691 686 685 674 657 660 661 661 663 669 673 676 681 687 694 697 702 706 709 713 716 719 722 724 726 728 729 731 733 734 735 736 738 739
708 708 676 657 648 645 644 648 653 660 658 678 666 674 658 655 657 653 659 671 675 678 682 685 691 696 700 704 707 711 715 718 720 723 726 729 730 732 734 735 736 739 741 741
713 708 684 657 644 644 650 646 642 647 652 659 663 664 643 638 650 658 660 664 668 671 676 680 687 693 697 701 704 709 713 716 719 723 726 729 731 733 735 737 738 739 742 744
717 708 695 669 642 650 665 637 643 643 639 642 664 649 643 646 646 651 658 658 660 664 670 674 679 686 692 697 701 706 710 715 718 722 726 728 731 734 736 738 740 742 743 745
704 705 702 694 655 676 622 615 622 635 631 630 628 631 630 634 631 634 639 645 653 658 663 668 673 681 687 693 699 704 709 713 717 721 724 728 730 733 736 739 741 743 744 746
694 702 702 697 669 637 614 618 625 634 637 626 625 625 624 624 634 637 635 636 639 645 651 659 667 674 682 689 696 702 707 711 716 720 723 727 730 733 737 739 742 744 746 747
670 683 690 683 676 660 652 641 631 634 640 645 645 635 624 628 648 642 630 633 639 644 647 655 664 671 678 686 693 698 704 709 714 718 721 725 729 732 736 739 743 745 747 749
692 694 696 693 687 653 659 642 628 638 660 657 648 646 636 619 610 608 614 624 628 634 642 651 659 665 671 680 689 695 701 705 709 715 720 724 727 731 735 739 742 746 749 751
703 691 678 685 677 662 662 648 659 675 665 658 650 640 635 611 602 607 608 614 623 633 641 648 656 661 668 675 683 691 695 698 705 712 717 722 726 730 734 738 741 745 748 751
707 709 694 688 680 678 679 677 674 670 666 657 651 637 625 618 609 601 606 609 615 623 630 639 647 656 663 670 676 684 689 696 702 709 714 719 724 728 732 736 740 744 747 750
713 705 695 693 680 676 674 674 672 662 662 652 644 632 622 610 600 602 599 605 611 619 626 634 645 653 659 665 671 675 684 691 698 704 710 716 721 725 730 733 737 741 745 748
709 702 702 696 688 675 671 668 666 661 657 652 640 630 622 608 601 601 594 599 604 611 621 629 637 645 652 658 666 674 680 688 693 700 706 712 717 722 726 731 734 737 741 744
701 702 707 703 696 691 681 673 669 667 659 650 639 628 612 610 601 599 599 590 598 608 615 625 632 638 647 655 662 668 675 682 689 696 701 706 712 718 723 727 732 736 739 742